sat.trackr.live / text

‹ back to catalog

STARLINK-33792

NORAD 63506 · 2025-071P

PAYLOAD ACTIVE UNKNOWN

§ Identity

Operator
Country
US
Launch date
2025-04-07
Launch site
AFWTR
Launch vehicle
Mass (kg)
RCS (m²)

Purposes: comms

External: N2YO · Heavens-Above · Gunter

§ Orbital elements

Epoch: 2026-05-24T17:19:41.774592Z

Period
94.11 min
Inclination
53.1594°
Eccentricity
0.0001058
Mean motion
15.30199163 rev/d
Perigee alt
474.5 km
Apogee alt
475.9 km
Semi-major
6,853.4 km
B*
4.1622e-4
RAAN
146.5541°
Arg perigee
86.8704°
Mean anomaly
273.2418°
Rev number
6,436

§ Raw data

STARLINK-337921 63506U 25071P   26144.72201128  .00011988  00000+0  41622-3 0  99992 63506  53.1594 146.5541 0001058  86.8704 273.2418 15.30199163 64366

JSON: /api/v1/satellites/63506 · /tle

For live sub-satellite position, see the globe view (requires WebGL).

§ Visibility from observer

Set your observer location to see the next 7 days of passes ≥ 10°. The values pass through the URL so the page stays shareable.

No JS? Fill the form by hand. The geolocation button needs JavaScript.